Temperature
12 12 12 12 12 12 12 12 12 12 12 12 12 11 11 11 11 11 11 11 10 10 10 9 9 9 9 9 9 9 9 9 9 9 9 9 9 9 9 9 9 9 9
12 12 12 12 11 11 11 11 11 11 11 11 11 11 11 11 11 11 10 10 10 10 10 9 9 9 9 8 8 8 8 8 8 8 8 8 8 9 9 9 8 8 8
11 11 11 11 11 11 11 11 11 11 11 11 11 11 11 11 10 10 10 10 10 10 10 9 9 9 9 8 8 8 8 8 8 8 8 8 8 8 8 8 8 8 8
11 11 11 11 11 10 10 10 10 10 10 10 10 10 10 10 10 10 10 10 10 9 9 9 9 9 9 8 8 8 7 8 8 8 8 8 8 8 8 8 8 8 8
10 10 10 10 10 10 10 10 10 10 10 10 10 10 10 9 10 9 9 9 9 9 9 9 9 9 8 8 8 8 7 7 7 7 7 7 7 7 7 7 7 7 7
10 10 10 9 9 9 9 9 9 9 9 9 9 9 9 9 9 9 9 9 9 9 8 8 8 8 8 8 8 7 7 7 7 7 7 7 7 7 7 7 7 7 7
9 9 9 9 9 9 9 9 9 9 8 8 8 8 8 8 8 8 8 8 8 8 8 8 8 8 8 8 7 7 7 7 6 6 6 6 6 6 6 6 6 7 7
9 9 9 9 8 8 8 8 8 8 8 7 7 7 7 7 7 8 7 7 7 7 7 7 7 7 7 7 7 7 7 6 6 6 6 6 6 6 6 6 6 6 6
8 8 8 8 8 8 8 8 8 8 7 7 7 6 6 6 6 7 7 7 7 7 7 7 7 7 7 7 6 6 6 6 6 6 6 6 6 6 6 6 6 6 6
8 8 8 8 8 8 8 8 7 7 7 7 7 6 6 6 6 6 6 6 6 7 7 6 6 6 6 6 6 6 6 6 6 5 5 5 5 5 5 5 5 5 5
7 7 7 7 7 7 7 7 7 7 6 6 6 6 6 6 6 6 6 6 6 6 6 6 6 6 6 6 6 5 5 5 5 5 5 5 5 4 5 5 5 5 5
7 7 7 7 7 7 7 7 7 6 6 6 6 6 6 6 6 5 5 5 5 6 5 5 5 5 5 5 5 5 5 5 5 4 4 4 4 4 4 4 4 4 4
6 6 6 6 6 6 6 6 6 6 6 6 6 6 6 5 5 5 5 5 5 5 5 5 5 5 5 5 5 5 4 4 4 4 4 4 4 4 4 4 4 4 4
6 6 6 6 6 5 5 5 5 6 5 5 5 5 5 5 5 5 5 4 4 4 4 4 5 5 4 4 4 4 4 4 4 4 4 4 3 3 3 3 3 3 3
5 5 5 5 5 5 5 5 5 5 5 5 5 5 5 5 5 5 4 4 4 3 3 4 4 4 4 4 4 4 4 3 3 3 3 3 3 3 3 3 3 3 3
4 5 4 4 4 4 4 4 4 4 4 4 4 4 4 4 4 4 4 4 3 3 3 3 3 3 3 3 3 3 3 3 3 3 3 3 3 2 2 2 2 3 3
4 4 4 4 4 4 4 4 4 4 4 4 4 4 4 4 4 4 3 3 3 3 2 3 3 3 3 3 3 3 3 3 3 3 3 2 2 2 2 2 2 2 2
3 3 3 3 3 3 3 3 3 3 3 3 4 4 4 4 3 3 3 3 3 2 2 2 2 2 2 2 2 2 2 2 2 2 2 2 2 2 2 2 2 2 2
3 3 3 3 3 3 3 3 3 3 3 3 3 3 3 3 3 3 3 2 2 2 2 2 2 2 2 2 2 2 2 2 2 2 2 2 2 2 2 2 1 1 1
2 2 2 2 2 2 2 2 2 2 2 3 3 3 3 3 2 2 2 2 2 2 1 1 1 1 1 1 1 1 1 2 2 2 2 1 1 1 1 1 1 1 1
2 2 2 2 2 2 2 2 2 2 2 2 2 2 2 2 2 2 2 2 1 1 1 1 1 1 1 1 0 0 0 1 1 1 1 1 1 1 1 1 1 1 1
1 1 1 1 1 1 1 1 1 1 1 2 2 2 2 2 2 1 1 1 1 1 1 0 0 0 0 0 -0 -0 -1 -1 -0 0 0 1 1 1 1 1 1 1 1
0 0 0 0 0 1 1 1 1 1 1 1 1 1 1 1 1 1 1 1 0 0 0 0 -0 -0 -0 -0 -1 -1 -1 -1 -1 -0 -1 -0 0 0 1 0 0 0 0
-0 -0 -0 -0 -0 -0 0 0 0 0 0 0 0 0 0 0 0 0 0 0 0 0 -0 -0 -0 -0 -1 -1 -1 -1 -1 -1 -1 -1 -1 -1 -0 -0 0 0 -0 -0 -0
-1 -1 -1 -1 -1 -1 -1 -0 -0 -0 -0 -0 -0 -0 -0 -0 -0 -0 -0 -0 0 -0 -0 -1 -1 -1 -1 -1 -1 -1 -1 -1 -1 -1 -1 -2 -1 -1 -0 -0 -1 -1 -0
-2 -2 -2 -2 -2 -1 -1 -1 -1 -1 -1 -1 -1 -1 -1 -1 -1 -1 -1 -1 -1 -1 -1 -1 -1 -1 -1 -1 -1 -1 -1 -2 -2 -2 -2 -2 -2 -2 -2 -1 -1 -1 -1
Wind_Speed
2 2 2 3 3 3 4 3 3 3 3 3 2 2 1 1 1 1 1 2 3 4 4 5 5 5 5 5 5 6 6 7 7 7 8 8 8 9 9 9 9 9 10
3 3 2 2 2 3 3 2 2 2 1 2 1 1 1 1 1 1 2 3 4 4 5 5 6 6 6 6 6 7 7 7 7 7 8 8 9 9 10 10 10 11 11
4 3 2 2 2 3 3 2 2 2 1 1 0 0 1 1 1 1 2 2 4 5 5 5 6 7 7 7 7 7 8 8 8 8 9 9 9 10 11 11 11 12 12
5 4 3 2 2 3 3 2 1 1 0 0 1 1 1 1 1 1 2 2 3 4 5 6 6 7 7 7 8 8 8 9 9 9 9 10 11 11 12 12 12 12 13
5 4 3 3 3 2 3 2 1 1 1 0 1 1 1 1 1 1 2 2 2 3 3 4 5 6 7 8 8 9 9 10 10 10 10 11 11 12 12 13 13 13 14
5 4 3 3 3 2 2 2 2 1 1 0 1 1 1 2 1 1 2 2 2 2 3 3 3 4 6 8 9 10 10 11 11 11 11 11 12 12 13 13 13 14 14
4 4 3 3 3 3 3 3 3 2 1 1 1 1 2 2 2 2 1 1 2 2 2 3 3 3 4 7 9 10 11 12 12 12 12 12 12 13 13 14 14 14 15
4 4 4 4 3 3 3 4 3 2 1 1 1 0 1 2 2 2 2 3 3 2 2 3 3 3 4 4 6 9 10 11 12 13 13 13 13 13 14 14 14 14 15
4 5 5 4 4 4 4 4 4 3 3 2 1 2 1 3 2 2 3 3 3 2 2 2 3 4 4 4 6 8 10 11 12 12 13 13 13 14 14 14 15 16 16
5 5 5 5 4 4 4 4 3 3 4 3 2 2 2 2 2 2 2 2 3 3 3 3 3 3 4 5 6 8 9 10 11 12 12 12 13 14 15 15 16 16 16
4 4 5 4 4 4 4 4 3 4 4 4 3 2 2 2 2 2 4 3 3 3 3 3 2 3 4 5 6 8 9 9 10 12 12 13 13 14 14 15 16 16 16
3 4 4 4 4 4 4 4 4 5 5 4 4 3 3 3 3 3 4 4 4 3 3 3 2 3 4 4 6 8 9 9 10 11 12 12 13 14 14 15 15 16 16
3 4 4 4 4 4 4 4 4 5 5 5 5 4 4 4 3 3 4 4 4 3 2 2 3 2 3 4 5 8 9 10 10 11 11 12 12 13 14 14 15 15 15
4 4 4 4 4 4 4 3 3 4 4 4 5 5 4 4 3 4 3 3 4 4 3 3 2 3 3 3 5 8 7 10 10 11 11 11 11 12 13 13 13 14 15
3 3 4 4 3 3 4 4 4 4 4 4 4 5 4 4 3 4 4 4 4 4 5 3 2 2 3 3 6 6 7 9 11 11 11 11 11 12 12 13 13 13 14
2 3 3 3 3 3 3 3 3 3 4 4 4 4 4 4 4 4 4 4 4 5 5 3 3 3 3 4 7 6 7 10 10 11 11 11 11 12 12 12 13 13 13
2 3 3 3 3 3 3 3 3 3 4 4 4 4 4 4 4 4 4 4 4 4 6 5 3 3 4 4 5 5 6 6 7 11 11 11 11 11 12 12 13 13 13
2 2 3 3 3 3 3 4 4 4 4 5 4 4 4 4 4 4 4 4 4 4 5 6 4 3 4 4 4 4 5 6 6 10 11 11 11 11 12 12 12 12 12
1 2 2 3 3 3 3 4 4 4 4 4 4 4 4 4 4 3 3 4 3 3 3 4 5 3 3 3 4 5 5 5 6 8 9 9 10 11 11 12 12 11 11
1 1 1 2 2 2 3 3 3 3 3 3 3 3 3 4 4 4 3 4 3 3 3 3 4 4 3 3 3 4 5 4 5 6 7 8 9 10 11 11 11 11 11
0 0 1 1 1 1 2 2 2 2 2 2 2 3 3 4 5 5 4 3 3 3 3 3 4 4 4 3 4 3 5 5 5 3 4 5 5 5 7 9 10 10 10
1 0 0 1 1 2 2 2 2 2 2 2 2 2 2 3 4 4 5 5 5 4 4 4 4 5 5 5 4 4 4 5 5 2 3 6 4 5 6 5 8 9 9
1 1 1 0 1 2 3 3 3 1 1 2 2 2 2 2 3 2 3 4 4 5 5 5 5 5 5 5 5 5 5 5 5 4 4 5 4 5 5 6 9 8 8
1 1 1 1 1 2 3 3 3 2 1 1 2 2 2 3 3 2 2 2 3 3 4 4 5 6 6 5 5 6 6 5 4 3 2 3 4 4 5 5 7 7 7
1 2 2 2 2 3 4 4 3 2 1 2 2 2 2 3 3 2 2 3 3 3 3 4 5 5 6 7 6 3 3 3 4 3 1 2 2 4 4 4 4 6 7
2 2 2 2 2 3 4 4 3 1 1 2 2 2 3 3 3 2 2 2 3 3 3 3 3 4 4 4 5 3 4 3 3 3 1 1 2 2 3 3 3 4 5
Wind_Direction
123 110 114 101 100 107 107 107 105 100 98 101 113 121 122 159 186 211 276 278 282 285 282 286 286 288 288 292 296 295 296 300 305 307 308 309 309 311 310 306 308 308 308
134 131 132 125 119 114 118 122 128 125 124 123 124 136 160 191 201 216 253 271 276 281 284 284 287 286 288 293 296 297 296 298 302 304 306 309 311 310 312 307 306 305 305
143 140 148 155 151 128 115 113 100 105 113 112 219 230 181 198 207 225 250 260 263 271 278 286 292 290 288 292 297 301 301 301 302 303 304 306 308 309 309 307 303 303 304
153 155 164 175 162 140 132 140 128 112 135 202 274 286 260 214 231 228 234 246 255 266 274 279 285 289 291 292 298 302 300 299 299 303 305 305 304 305 305 306 301 300 300
164 168 173 178 164 154 157 160 154 160 171 272 262 270 270 266 257 241 237 241 243 258 269 276 281 286 291 294 298 299 300 298 298 299 300 303 304 304 305 306 304 301 299
175 170 172 173 170 165 171 168 166 149 160 216 293 305 291 277 259 253 252 256 252 251 263 273 284 287 295 299 301 301 301 299 299 300 301 303 304 305 306 306 305 304 301
179 175 173 175 183 185 189 178 171 155 123 92 33 333 311 280 261 248 248 262 262 255 261 271 269 279 291 302 303 302 302 301 302 301 301 302 302 303 305 306 306 305 304
186 185 179 186 193 194 190 185 176 171 173 151 151 337 307 304 274 250 251 241 248 244 254 264 260 275 285 289 301 307 305 304 304 303 303 303 302 302 303 305 305 306 305
196 200 197 194 194 192 198 199 193 189 200 211 167 171 200 242 290 268 242 243 247 247 255 269 271 278 279 285 291 297 302 303 304 305 305 305 304 303 305 305 306 306 307
202 203 197 195 194 197 202 208 209 203 195 213 222 213 220 217 231 283 282 261 255 250 254 270 272 271 278 280 285 295 299 302 302 303 305 307 308 308 308 308 307 306 307
204 200 199 197 199 205 207 211 214 208 209 214 215 213 225 255 237 233 273 282 277 254 250 261 269 272 274 278 283 292 300 301 302 303 306 307 307 308 309 311 311 311 310
201 199 199 199 203 206 211 215 217 215 218 218 220 218 214 223 228 222 248 274 277 270 255 251 257 271 273 279 284 297 297 298 301 302 303 305 306 308 310 310 311 311 311
214 209 209 208 209 211 212 213 217 220 221 220 219 226 229 236 232 230 237 261 272 280 268 252 249 272 279 291 294 299 296 300 300 299 300 302 303 305 307 307 308 310 311
217 207 207 213 217 211 214 214 226 231 228 228 231 227 231 234 225 225 227 236 274 281 262 255 253 247 277 294 299 307 305 304 303 302 302 302 302 303 303 305 306 308 310
218 201 202 209 216 215 214 216 224 232 231 236 235 231 233 234 224 226 222 219 225 260 266 251 251 248 282 295 299 308 304 303 307 305 303 301 299 301 301 301 303 305 307
206 201 207 212 213 214 217 220 228 230 229 237 232 225 233 239 230 225 223 223 221 231 257 253 250 262 277 294 296 306 302 303 304 303 302 300 298 297 298 299 301 303 305
203 204 205 213 217 219 217 221 234 232 230 237 233 228 239 239 230 226 222 221 223 224 253 272 263 265 267 273 298 304 302 301 302 300 299 300 296 294 296 299 300 300 302
212 210 208 216 226 226 222 224 233 236 231 234 236 234 243 237 230 227 220 226 233 230 237 266 279 274 276 277 292 294 304 303 299 295 296 297 297 296 298 299 299 300 302
223 220 212 224 232 231 232 235 232 234 233 235 234 232 238 224 228 231 225 230 235 238 230 249 278 283 286 295 305 302 298 297 301 299 297 298 298 301 302 301 301 302 303
203 230 239 243 245 247 243 238 235 235 240 242 237 231 230 225 225 224 231 230 225 226 231 246 273 286 283 287 289 302 307 304 303 310 306 307 304 305 306 303 302 300 301
295 248 261 290 296 280 252 240 235 232 230 242 249 242 238 235 238 234 232 226 222 227 237 249 268 283 284 289 287 291 295 303 299 296 307 308 311 311 312 306 302 299 302
24 12 25 313 318 304 297 288 272 229 232 238 251 259 255 254 256 256 249 248 240 237 240 250 261 264 276 278 279 282 288 302 299 303 313 302 308 301 308 307 304 306 306
37 15 357 332 305 296 311 308 307 285 252 258 256 263 276 285 292 275 271 278 273 266 253 243 247 258 265 266 271 276 274 280 280 288 305 290 300 300 310 311 312 313 312
12 341 339 338 321 313 324 327 330 326 301 286 277 268 270 280 270 265 270 273 272 270 263 254 244 254 261 260 253 263 270 280 291 289 288 279 294 300 312 316 319 324 324
7 1 354 349 341 326 332 337 334 323 306 294 289 296 286 273 282 281 274 280 288 289 292 289 286 289 297 296 286 276 273 284 299 300 282 280 293 306 305 304 318 332 336
14 9 358 351 338 324 327 328 324 311 300 299 308 296 288 286 286 278 256 265 282 291 304 313 317 322 323 315 307 265 244 252 283 288 269 296 291 323 314 305 316 332 336
Height
1505 1507 1508 1509 1510 1511 1512 1513 1514 1515 1515 1516 1517 1517 1517 1518 1518 1518 1518 1518 1518 1518 1517 1517 1517 1516 1516 1515 1515 1514 1513 1513 1512 1511 1510 1509 1508 1507 1505 1504 1503 1502 1501
1503 1505 1506 1507 1508 1509 1510 1511 1512 1513 1513 1514 1514 1515 1515 1515 1515 1515 1516 1516 1516 1515 1515 1514 1514 1514 1513 1513 1512 1512 1511 1510 1509 1508 1507 1506 1505 1504 1503 1501 1500 1499 1497
1501 1502 1503 1504 1505 1506 1507 1509 1509 1510 1511 1511 1511 1512 1512 1512 1513 1513 1513 1513 1513 1512 1512 1511 1511 1511 1510 1510 1509 1508 1508 1507 1506 1506 1505 1503 1502 1501 1500 1498 1497 1495 1494
1498 1499 1500 1501 1502 1504 1505 1506 1506 1507 1508 1508 1508 1508 1509 1509 1509 1509 1509 1509 1509 1509 1509 1508 1508 1507 1507 1506 1506 1505 1504 1504 1503 1502 1501 1500 1499 1498 1496 1495 1493 1492 1490
1495 1496 1497 1498 1499 1500 1501 1502 1503 1504 1504 1504 1504 1505 1505 1505 1505 1506 1506 1506 1506 1506 1505 1505 1504 1504 1503 1503 1502 1501 1501 1500 1500 1499 1498 1497 1495 1494 1492 1491 1489 1488 1486
1492 1493 1494 1495 1496 1497 1498 1499 1500 1501 1501 1501 1501 1501 1501 1501 1501 1502 1502 1502 1502 1502 1502 1501 1500 1500 1499 1499 1498 1497 1497 1496 1496 1495 1494 1493 1491 1490 1488 1487 1485 1483 1482
1488 1490 1490 1491 1493 1493 1494 1495 1496 1497 1497 1498 1497 1497 1497 1497 1497 1498 1498 1498 1498 1498 1498 1497 1496 1496 1495 1494 1494 1493 1493 1492 1491 1491 1490 1489 1487 1486 1484 1483 1481 1479 1477
1484 1486 1486 1487 1489 1490 1491 1491 1492 1492 1493 1494 1494 1493 1493 1493 1492 1493 1493 1494 1494 1494 1494 1493 1493 1492 1491 1490 1489 1489 1488 1487 1487 1486 1485 1484 1483 1482 1480 1478 1476 1475 1473
1481 1482 1483 1484 1485 1486 1486 1487 1488 1489 1489 1490 1491 1492 1491 1489 1488 1488 1488 1489 1489 1489 1489 1489 1488 1488 1487 1486 1484 1484 1483 1483 1482 1481 1480 1479 1478 1477 1475 1474 1472 1470 1468
1477 1478 1479 1480 1481 1482 1483 1483 1484 1485 1486 1486 1487 1487 1488 1487 1486 1483 1483 1484 1484 1484 1484 1484 1484 1483 1483 1482 1480 1479 1479 1478 1477 1476 1475 1474 1473 1472 1470 1469 1467 1465 1463
1473 1474 1475 1476 1477 1478 1479 1480 1480 1481 1482 1482 1482 1482 1483 1483 1483 1482 1479 1479 1479 1479 1479 1479 1479 1479 1478 1477 1476 1475 1474 1473 1472 1471 1470 1469 1468 1467 1465 1464 1462 1460 1458
1468 1469 1471 1472 1473 1474 1475 1476 1477 1477 1478 1478 1478 1478 1478 1478 1478 1478 1476 1474 1474 1474 1474 1474 1474 1474 1473 1472 1471 1470 1470 1469 1467 1466 1465 1464 1463 1461 1460 1459 1457 1455 1453
1462 1464 1466 1467 1468 1469 1470 1471 1472 1473 1473 1474 1474 1474 1474 1474 1474 1474 1473 1471 1470 1469 1469 1469 1469 1469 1468 1468 1467 1466 1465 1464 1463 1461 1460 1459 1457 1456 1455 1453 1451 1450 1448
1458 1459 1461 1462 1463 1464 1465 1467 1468 1468 1469 1469 1469 1469 1469 1469 1469 1469 1469 1468 1466 1464 1464 1464 1464 1464 1464 1463 1462 1461 1460 1459 1458 1456 1455 1454 1452 1451 1449 1448 1446 1445 1443
1454 1455 1456 1457 1458 1459 1460 1462 1462 1463 1463 1464 1464 1464 1464 1464 1464 1464 1464 1464 1464 1461 1459 1459 1459 1459 1459 1458 1458 1457 1455 1454 1453 1451 1450 1449 1447 1445 1444 1443 1441 1439 1438
1450 1450 1451 1452 1453 1454 1456 1457 1457 1458 1459 1459 1459 1459 1459 1459 1459 1459 1459 1459 1459 1459 1455 1454 1455 1455 1454 1454 1453 1452 1451 1449 1448 1447 1445 1443 1442 1440 1439 1437 1436 1434 1432
1446 1446 1447 1448 1449 1450 1451 1452 1452 1453 1454 1454 1454 1454 1453 1454 1453 1453 1454 1454 1454 1454 1451 1450 1451 1450 1450 1449 1448 1447 1446 1445 1443 1442 1440 1438 1437 1435 1434 1432 1430 1429 1427
1443 1443 1443 1444 1445 1445 1446 1447 1448 1449 1449 1449 1449 1449 1448 1449 1448 1448 1449 1449 1449 1449 1449 1446 1446 1445 1445 1445 1444 1442 1441 1440 1438 1437 1435 1434 1432 1430 1428 1426 1425 1423 1422
1439 1440 1440 1440 1441 1441 1442 1443 1444 1444 1444 1445 1445 1444 1444 1444 1444 1444 1444 1445 1445 1445 1445 1443 1441 1441 1441 1440 1439 1438 1437 1435 1433 1432 1430 1429 1427 1425 1423 1421 1420 1418 1416
1436 1436 1437 1437 1438 1438 1438 1439 1440 1440 1440 1440 1441 1440 1440 1440 1440 1440 1440 1441 1440 1440 1440 1439 1438 1437 1436 1436 1435 1433 1431 1430 1428 1427 1425 1424 1422 1420 1418 1416 1414 1413 1411
1433 1433 1433 1434 1434 1434 1435 1435 1436 1436 1436 1436 1436 1436 1436 1436 1436 1436 1436 1436 1436 1436 1435 1435 1434 1433 1432 1432 1430 1428 1427 1425 1423 1422 1420 1419 1417 1415 1413 1411 1409 1407 1406
1429 1429 1430 1430 1431 1431 1432 1432 1432 1432 1432 1432 1432 1432 1432 1432 1432 1432 1432 1433 1433 1432 1431 1431 1430 1429 1428 1428 1427 1425 1423 1421 1418 1418 1416 1414 1412 1410 1408 1406 1404 1403 1402
1426 1426 1427 1427 1428 1428 1428 1429 1429 1429 1428 1428 1429 1429 1428 1428 1428 1428 1428 1429 1429 1428 1428 1428 1426 1425 1425 1424 1423 1421 1420 1418 1416 1414 1412 1409 1408 1405 1404 1402 1400 1399 1398
1424 1424 1424 1424 1424 1425 1425 1425 1425 1425 1425 1425 1425 1425 1425 1425 1425 1425 1425 1425 1424 1424 1424 1424 1423 1422 1421 1420 1420 1418 1417 1414 1412 1411 1409 1406 1404 1402 1400 1399 1397 1395 1394
1421 1421 1422 1422 1422 1422 1422 1422 1422 1422 1421 1421 1422 1422 1422 1422 1422 1422 1421 1421 1420 1420 1420 1420 1419 1419 1418 1417 1416 1415 1413 1411 1408 1407 1406 1404 1401 1399 1397 1396 1394 1392 1391
1419 1419 1420 1420 1420 1420 1420 1420 1420 1419 1419 1418 1419 1419 1419 1419 1419 1418 1418 1418 1417 1416 1416 1416 1416 1415 1414 1413 1412 1411 1409 1407 1405 1403 1402 1401 1399 1397 1394 1393 1392 1390 1388